FW7027 Weather Reports


time (UTC)temp
C
wind
direction
speed
KPH
gust
KPH
rain 1hr
cm
rain 24hr
cm
rain mn
cm
humidity
%
barometer
mb
20260510205057 25 337 3.2 11.3 0.00 0.00 0.00 55
20260510204553 25 198 4.8 8.0 0.00 0.00 0.00 54
20260510204050 25 250 3.2 4.8 0.00 0.00 0.00 57
20260510203547 25 291 1.6 4.8 0.00 0.00 0.00 54
20260510203044 25 53 4.8 8.0 0.00 0.00 0.00 56
20260510202542 24 98 3.2 4.8 0.00 0.00 0.00 55
20260510202039 24 14 1.6 8.0 0.00 0.00 0.00 57
20260510201537 25 311 1.6 3.2 0.00 0.00 0.00 59
20260510201033 25 179 1.6 4.8 0.00 0.00 0.00 58
20260510200529 25 307 1.6 8.0 0.00 0.00 0.00 60
20260510200027 25 259 1.6 3.2 0.00 0.00 0.00 59
20260510195525 25 269 1.6 11.3 0.00 0.00 0.00 61
20260510195020 23 1 0.0 1.6 0.00 0.00 0.00 65
20260510194516 23 185 3.2 8.0 0.00 0.00 0.00 66
20260510194012 23 2 1.6 3.2 0.00 0.00 0.00 65
20260510193507 23 342 0.0 1.6 0.00 0.00 0.00 64
20260510193003 23 32 0.0 1.6 0.00 0.00 0.00 65
20260510192458 23 21 0.0 3.2 0.00 0.00 0.00 61
20260510191954 23 343 0.0 3.2 0.00 0.00 0.00 62
20260510191450 23 343 0.0 1.6 0.00 0.00 0.00 65
20260510190948 23 351 1.6 3.2 0.00 0.00 0.00 61
20260510190445 23 356 0.0 1.6 0.00 0.00 0.00 63
20260510185941 23 316 1.6 3.2 0.00 0.00 0.00 62
20260510185438 23 359 1.6 3.2 0.00 0.00 0.00 61
20260510184935 23 75 1.6 4.8 0.00 0.00 0.00 63
20260510184433 23 341 1.6 4.8 0.00 0.00 0.00 58
20260510183932 25 16 0.0 4.8 0.00 0.00 0.00 58
20260510183429 23 300 3.2 4.8 0.00 0.00 0.00 60
20260510182924 23 344 1.6 4.8 0.00 0.00 0.00 61
20260510182421 25 325 1.6 1.6 0.00 0.00 0.00 56
20260510181916 25 340 1.6 3.2 0.00 0.00 0.00 57
20260510181415 25 261 9.7 14.5 0.00 0.00 0.00 55
20260510180910 25 336 0.0 3.2 0.00 0.00 0.00 58
20260510180408 25 231 1.6 4.8 0.00 0.00 0.00 56
20260510175904 24 354 4.8 4.8 0.00 0.00 0.00 59
20260510175400 24 0 1.6 3.2 0.00 0.00 0.00 61
20260510174856 24 64 0.0 1.6 0.00 0.00 0.00 63
20260510174355 23 334 1.6 1.6 0.00 0.00 0.00 60
20260510173850 23 7 1.6 3.2 0.00 0.00 0.00 62
20260510173347 22 348 0.0 3.2 0.00 0.00 0.00 62
20260510172843 22 4 1.6 4.8 0.00 0.00 0.00 62
20260510172339 23 28 0.0 3.2 0.00 0.00 0.00 58
20260510171835 23 351 1.6 3.2 0.00 0.00 0.00 60
20260510171333 24 294 3.2 11.3 0.00 0.00 0.00 58
20260510170830 25 358 0.0 3.2 0.00 0.00 0.00 54
20260510170326 25 344 4.8 4.8 0.00 0.00 0.00 55
20260510165821 24 353 4.8 4.8 0.00 0.00 0.00 57
20260510165318 25 341 4.8 4.8 0.00 0.00 0.00 55
20260510164815 25 350 1.6 1.6 0.00 0.00 0.00 55
20260510164313 25 322 1.6 1.6 0.00 0.00 0.00 54
20260510163812 24 0 1.6 1.6 0.00 0.00 0.00 57
20260510163309 24 27 1.6 3.2 0.00 0.00 0.00 56
20260510162808 24 353 1.6 1.6 0.00 0.00 0.00 56
20260510162306 25 350 0.0 3.2 0.00 0.00 0.00 58
20260510161801 25 20 0.0 3.2 0.00 0.00 0.00 54
20260510161257 25 343 1.6 3.2 0.00 0.00 0.00 53
20260510160754 25 182 0.0 4.8 0.00 0.00 0.00 56
20260510160251 25 32 4.8 8.0 0.00 0.00 0.00 54
20260510155746 24 341 4.8 8.0 0.00 0.00 0.00 55
20260510155242 24 74 0.0 4.8 0.00 0.00 0.00 56
20260510154738 24 4 6.4 9.7 0.00 0.00 0.00 56
20260510154234 23 18 4.8 9.7 0.00 0.00 0.00 57
20260510153729 23 337 4.8 4.8 0.00 0.00 0.00 59
20260510153225 23 334 1.6 9.7 0.00 0.00 0.00 55
20260510152722 23 351 4.8 9.7 0.00 0.00 0.00 59
20260510152218 23 357 3.2 3.2 0.00 0.00 0.00 62
20260510151715 22 14 1.6 4.8 0.00 0.00 0.00 57
20260510151214 22 38 1.6 4.8 0.00 0.00 0.00 59
20260510150709 23 14 1.6 1.6 0.00 0.00 0.00 63
20260510150204 22 58 1.6 3.2 0.00 0.00 0.00 58
20260510145701 22 24 1.6 3.2 0.00 0.00 0.00 60
20260510145157 22 58 1.6 4.8 0.00 0.00 0.00 58
20260510144653 22 5 1.6 11.3 0.00 0.00 0.00 62
20260510144150 22 60 3.2 4.8 0.00 0.00 0.00 62
20260510143645 22 14 0.0 3.2 0.00 0.00 0.00 63
20260510143142 21 273 3.2 8.0 0.00 0.00 0.00 67
20260510142638 20 3 3.2 3.2 0.00 0.00 0.00 76
20260510142135 20 0 0.0 1.6 0.00 0.00 0.00 72
20260510141632 22 157 4.8 8.0 0.00 0.00 0.00 66
20260510141131 22 22 1.6 1.6 0.00 0.00 0.00 66
20260510140626 22 15 1.6 3.2 0.00 0.00 0.00 70
20260510140126 20 19 0.0 1.6 0.00 0.00 0.00 75
20260510135621 20 3 1.6 1.6 0.00 0.00 0.00 77
20260510135118 20 338 0.0 3.2 0.00 0.00 0.00 76
20260510134615 20 15 1.6 3.2 0.00 0.00 0.00 85
20260510134112 19 21 0.0 1.6 0.00 0.00 0.00 83
20260510133608 20 23 0.0 0.0 0.00 0.00 0.00 84
20260510133103 19 27 0.0 1.6 0.00 0.00 0.00 84
20260510132601 18 21 0.0 1.6 0.00 0.00 0.00 86
20260510132057 18 37 0.0 1.6 0.00 0.00 0.00 85
20260510131555 17 23 0.0 1.6 0.00 0.00 0.00 87
20260510131052 17 52 0.0 1.6 0.00 0.00 0.00 86
20260510130548 17 51 0.0 0.0 0.00 0.00 0.00 84
20260510130046 17 51 0.0 1.6 0.00 0.00 0.00 87
20260510125542 16 51 0.0 0.0 0.00 0.00 0.00 85
20260510125038 16 50 0.0 1.6 0.00 0.00 0.00 88
20260510124536 15 39 0.0 0.0 0.00 0.00 0.00 89
20260510124032 15 61 0.0 0.0 0.00 0.00 0.00 90
20260510123527 13 33 0.0 0.0 0.00 0.00 0.00 92
20260510123024 13 30 0.0 0.0 0.00 0.00 0.00 92
20260510122519 12 29 0.0 0.0 0.00 0.00 0.00 96
20260510122016 11 27 0.0 0.0 0.00 0.00 0.00 99
20260510121513 11 27 0.0 0.0 0.00 0.00 0.00 99
20260510121010 10 28 0.0 0.0 0.00 0.00 0.00 99
20260510120508 9 27 0.0 0.0 0.00 0.00 0.00 99
20260510120004 8 27 0.0 0.0 0.00 0.00 0.00 99
20260510115501 8 27 0.0 0.0 0.00 0.00 0.00 99
20260510114956 8 27 0.0 0.0 0.00 0.00 0.00 99
20260510114453 8 27 0.0 0.0 0.00 0.00 0.00 99
20260510113949 8 27 0.0 0.0 0.00 0.00 0.00 99
20260510113444 8 27 0.0 0.0 0.00 0.00 0.00 99
20260510112942 8 27 0.0 0.0 0.00 0.00 0.00 99
20260510112439 8 27 0.0 0.0 0.00 0.00 0.00 99
20260510111935 7 27 0.0 0.0 0.00 0.00 0.00 99
20260510111431 7 27 0.0 0.0 0.00 0.00 0.00 99
20260510110927 7 27 0.0 0.0 0.00 0.00 0.00 99
20260510110424 7 27 0.0 0.0 0.00 0.00 0.00 99
20260510105920 7 27 0.0 0.0 0.00 0.00 0.00 99
20260510105415 7 28 0.0 0.0 0.00 0.00 0.00 99
20260510104911 7 28 0.0 0.0 0.00 0.00 0.00 99
20260510104408 7 28 0.0 0.0 0.00 0.00 0.00 99
20260510103904 7 28 0.0 0.0 0.00 0.00 0.00 99
20260510103401 7 28 0.0 0.0 0.00 0.00 0.00 99
20260510102856 7 28 0.0 0.0 0.00 0.00 0.00 99
20260510102347 7 28 0.0 0.0 0.00 0.00 0.00 99
20260510101844 7 28 0.0 0.0 0.00 0.00 0.00 99
20260510101342 7 28 0.0 0.0 0.00 0.00 0.00 99
20260510100838 7 28 0.0 0.0 0.00 0.00 0.00 99
20260510100336 7 28 0.0 0.0 0.00 0.00 0.00 99
20260510095832 7 28 0.0 0.0 0.00 0.00 0.00 99
20260510095327 7 28 0.0 0.0 0.00 0.00 0.00 99
20260510094821 7 28 0.0 0.0 0.00 0.00 0.00 99
20260510094316 7 28 0.0 0.0 0.00 0.00 0.00 99
20260510093813 7 28 0.0 0.0 0.00 0.00 0.00 99
20260510093309 7 28 0.0 0.0 0.00 0.00 0.00 99
20260510092805 7 28 0.0 0.0 0.00 0.00 0.00 99
20260510092301 7 28 0.0 0.0 0.00 0.00 0.00 99
20260510091757 7 28 0.0 0.0 0.00 0.00 0.00 99
20260510091255 7 28 0.0 0.0 0.00 0.00 0.00 99
20260510090751 7 28 0.0 0.0 0.00 0.00 0.00 99
20260510090248 7 28 0.0 0.0 0.00 0.00 0.00 99
20260510085744 8 28 0.0 0.0 0.00 0.00 0.00 99
20260510085238 7 31 0.0 0.0 0.00 0.00 0.00 99
20260510084734 8 27 0.0 0.0 0.00 0.00 0.00 99
20260510084231 8 28 0.0 0.0 0.00 0.00 0.00 99
20260510083727 8 27 0.0 0.0 0.00 0.00 0.00 99
20260510083225 8 28 0.0 1.6 0.00 0.00 0.00 99
20260510082720 8 28 0.0 0.0 0.00 0.00 0.00 99
20260510082217 8 27 0.0 0.0 0.00 0.00 0.00 99
20260510081716 8 28 0.0 1.6 0.00 0.00 0.00 99
20260510081212 8 27 0.0 0.0 0.00 0.00 0.00 99
20260510080707 8 26 0.0 0.0 0.00 0.00 0.00 99
20260510080204 8 26 0.0 0.0 0.00 0.00 0.00 99
20260510075701 8 26 0.0 0.0 0.00 0.00 0.00 99
20260510075158 8 26 0.0 0.0 0.00 0.00 0.00 99
20260510074655 8 26 0.0 0.0 0.00 0.00 0.00 99
20260510074151 8 26 0.0 0.0 0.00 0.00 0.00 99
20260510073648 8 26 0.0 0.0 0.00 0.00 0.00 99
20260510073144 8 26 0.0 0.0 0.00 0.00 0.00 99
20260510072640 8 26 0.0 0.0 0.00 0.00 0.00 99
20260510072136 8 26 0.0 0.0 0.00 0.00 0.00 99
20260510071632 8 26 0.0 0.0 0.00 0.00 0.00 99
20260510071130 8 26 0.0 0.0 0.00 0.00 0.00 99
20260510070628 8 26 0.0 0.0 0.00 0.00 0.00 99
20260510070125 8 26 0.0 0.0 0.00 0.00 0.00 99
20260510065620 8 26 0.0 0.0 0.00 0.00 0.00 99
20260510065116 8 26 0.0 0.0 0.00 0.00 0.00 99
20260510064613 8 26 0.0 0.0 0.00 0.00 0.00 99
20260510064110 8 26 0.0 0.0 0.00 0.00 0.00 99
20260510063607 8 26 0.0 0.0 0.00 0.00 0.00 99
20260510063103 8 26 0.0 0.0 0.00 0.00 0.00 99
20260510062554 8 26 0.0 0.0 0.00 0.00 0.00 99
20260510062049 8 26 0.0 0.0 0.00 0.00 0.00 99
20260510061546 8 26 0.0 0.0 0.00 0.00 0.00 99
20260510061043 8 26 0.0 0.0 0.00 0.00 0.00 99
20260510060539 9 26 0.0 0.0 0.00 0.00 0.00 99
20260510060035 9 26 0.0 0.0 0.00 0.00 0.00 99
20260510055531 9 26 0.0 0.0 0.00 0.00 0.00 99
20260510055030 9 26 0.0 0.0 0.00 0.00 0.00 99
20260510054525 9 26 0.0 0.0 0.00 0.00 0.00 99
20260510054020 9 26 0.0 0.0 0.00 0.00 0.00 99
20260510053516 9 26 0.0 0.0 0.00 0.00 0.00 99
20260510053013 9 26 0.0 0.0 0.00 0.00 0.00 99
20260510052509 9 26 0.0 0.0 0.00 0.00 0.00 99
20260510052005 10 26 0.0 0.0 0.00 0.00 0.00 99
20260510051500 10 26 0.0 0.0 0.00 0.00 0.00 99
20260510050957 10 26 0.0 0.0 0.00 0.00 0.00 99
20260510050454 10 25 0.0 0.0 0.00 0.00 0.00 99
20260510045951 10 25 0.0 0.0 0.00 0.00 0.00 99
20260510045449 10 25 0.0 0.0 0.00 0.00 0.00 99
20260510044945 10 25 0.0 0.0 0.00 0.00 0.00 99
20260510044442 10 25 0.0 0.0 0.00 0.00 0.00 99
20260510043939 10 25 0.0 0.0 0.00 0.00 0.00 99
20260510043434 10 25 0.0 0.0 0.00 0.00 0.00 99
20260510042933 10 25 0.0 0.0 0.00 0.00 0.00 99
20260510042429 10 25 0.0 0.0 0.00 0.00 0.00 99
20260510041924 10 25 0.0 0.0 0.00 0.00 0.00 99
20260510041422 10 25 0.0 0.0 0.00 0.00 0.00 99
20260510040919 10 25 0.0 0.0 0.00 0.00 0.00 99
20260510040416 10 25 0.0 0.0 0.00 0.00 0.00 99
20260510035911 10 25 0.0 0.0 0.00 0.00 0.00 99
20260510035408 10 25 0.0 0.0 0.00 0.00 0.00 99
20260510034903 10 26 0.0 0.0 0.00 0.00 0.00 99
20260510034402 11 25 0.0 0.0 0.00 0.00 0.00 99
20260510033857 10 25 0.0 0.0 0.00 0.00 0.00 99
20260510033354 11 25 0.0 0.0 0.00 0.00 0.00 99
20260510032850 11 25 0.0 0.0 0.00 0.00 0.00 99
20260510032347 11 25 0.0 0.0 0.00 0.00 0.00 99
20260510031843 10 25 0.0 0.0 0.00 0.00 0.00 99
20260510031338 11 25 0.0 0.0 0.00 0.00 0.00 99
20260510030838 11 25 0.0 0.0 0.00 0.00 0.00 99
20260510030335 11 24 0.0 0.0 0.00 0.00 0.00 99
20260510025832 11 24 0.0 0.0 0.00 0.00 0.00 99
20260510025330 11 24 0.0 0.0 0.00 0.00 0.00 99
20260510024826 11 25 0.0 0.0 0.00 0.00 0.00 99
20260510024323 11 25 0.0 0.0 0.00 0.00 0.00 98
20260510023820 12 25 0.0 0.0 0.00 0.00 0.00 98
20260510023316 11 25 0.0 0.0 0.00 0.00 0.00 98
20260510022813 12 23 0.0 0.0 0.00 0.00 0.00 98
20260510022312 12 24 0.0 0.0 0.00 0.00 0.00 97
20260510021811 12 23 0.0 0.0 0.00 0.00 0.00 97
20260510021310 12 22 0.0 0.0 0.00 0.00 0.00 97
20260510020805 12 22 0.0 0.0 0.00 0.00 0.00 97
20260510020300 12 22 0.0 0.0 0.00 0.00 0.00 96
20260510015756 12 22 0.0 0.0 0.00 0.00 0.00 96
20260510015252 12 22 0.0 0.0 0.00 0.00 0.00 95
20260510014747 13 23 0.0 0.0 0.00 0.00 0.00 95
20260510014245 13 20 0.0 0.0 0.00 0.00 0.00 95
20260510013741 13 13 0.0 0.0 0.00 0.00 0.00 95
20260510013237 13 13 0.0 0.0 0.00 0.00 0.00 94
20260510012736 13 13 0.0 0.0 0.00 0.00 0.00 93
20260510012232 13 12 0.0 0.0 0.00 0.00 0.00 94
20260510011732 13 12 0.0 0.0 0.00 0.00 0.00 93
20260510011228 13 12 0.0 0.0 0.00 0.00 0.00 92
20260510010725 13 12 0.0 0.0 0.00 0.00 0.00 91
20260510010221 14 14 0.0 0.0 0.00 0.00 0.00 91
20260510005718 13 349 0.0 0.0 0.00 0.00 0.00 91
20260510005214 14 349 0.0 0.0 0.00 0.00 0.00 90
20260510004713 14 349 0.0 0.0 0.00 0.00 0.00 90
20260510004211 15 349 0.0 0.0 0.00 0.00 0.00 88
20260510003708 15 349 0.0 0.0 0.00 0.00 0.00 87
20260510003203 15 349 0.0 0.0 0.00 0.00 0.00 85
20260510002657 16 349 0.0 0.0 0.00 0.00 0.00 84
20260510002155 16 349 0.0 0.0 0.00 0.00 0.00 83
20260510001652 16 348 0.0 0.0 0.00 0.00 0.00 82
20260510001150 16 349 0.0 0.0 0.00 0.00 0.00 80
20260510000651 17 338 0.0 0.0 0.00 0.00 0.00 79
20260510000148 17 340 0.0 1.6 0.00 0.00 0.00 78
20260509235645 17 331 0.0 0.0 0.00 0.00 0.00 78
20260509235141 17 333 0.0 0.0 0.00 0.00 0.00 77
20260509234637 17 349 0.0 0.0 0.00 0.00 0.00 76
20260509234135 17 4 0.0 1.6 0.00 0.00 0.00 75
20260509233632 18 348 0.0 0.0 0.00 0.00 0.00 76
20260509233124 18 343 0.0 1.6 0.00 0.00 0.00 74
20260509232620 18 358 0.0 0.0 0.00 0.00 0.00 72
20260509232117 18 268 1.6 1.6 0.00 0.00 0.00 74
20260509231614 19 344 1.6 4.8 0.00 0.00 0.00 72
20260509231112 19 326 0.0 1.6 0.00 0.00 0.00 72
20260509230608 19 7 0.0 1.6 0.00 0.00 0.00 72
20260509230105 20 19 1.6 1.6 0.00 0.00 0.00 71
20260509225601 20 317 0.0 0.0 0.00 0.00 0.00 70
20260509225056 20 3 0.0 0.0 0.00 0.00 0.00 71
20260509224552 20 359 4.8 4.8 0.00 0.00 0.00 70
20260509224049 20 313 0.0 1.6 0.00 0.00 0.00 66
20260509223546 20 351 4.8 11.3 0.00 0.00 0.00 65
20260509223044 20 2 0.0 3.2 0.00 0.00 0.00 72
20260509222539 21 307 1.6 1.6 0.00 0.00 0.00 64
20260509222036 21 326 0.0 3.2 0.00 0.00 0.00 69
20260509221532 21 355 0.0 0.0 0.00 0.00 0.00 69
20260509221028 20 355 0.0 0.0 0.00 0.00 0.00 67
20260509220524 20 338 0.0 0.0 0.00 0.00 0.00 70
20260509220020 20 355 0.0 0.0 0.00 0.00 0.00 65
20260509215515 20 306 1.6 3.2 0.00 0.00 0.00 68
20260509215013 21 305 3.2 3.2 0.00 0.00 0.00 66
20260509214510 21 9 1.6 3.2 0.00 0.00 0.00 65
20260509214007 20 358 0.0 1.6 0.00 0.00 0.00 68
20260509213503 20 354 1.6 3.2 0.00 0.00 0.00 66
20260509213000 21 30 0.0 3.2 0.00 0.00 0.00 67
20260509212457 21 358 0.0 1.6 0.00 0.00 0.00 64
20260509211954 21 1 1.6 3.2 0.00 0.00 0.00 65
20260509211449 21 270 3.2 11.3 0.00 0.00 0.00 61
20260509210946 22 348 0.0 4.8 0.00 0.00 0.00 64
20260509210443 21 25 1.6 3.2 0.00 0.00 0.00 61
20260509205938 21 85 4.8 8.0 0.00 0.00 0.00 63
20260509205433 20 47 0.0 4.8 0.00 0.00 0.00 67